METEOR 2-11 DEB, 40705

Orbit data source: Space-Track

METEOR 2-11 DEB, 40705 is space debris in LEO originally from a launch on Thu, 05 Jul 1984 UTC launched from the Plesetsk Missile And Space Complex (PKMTR). Debris objects in space refer to the collection of defunct objects orbiting the Earth. Examples of debris include non-operational satellites, rocket bodies, and fragments generated from explosions, collisions, or faulty payload assembly.

Loading next visibility...
Identifier
40705, 1984-072G
Orbit
LEO
Country
Flag of CISCIS
Related business
Manufacturer
Unknown
Mission
Spacecraft
Bus & Motor
Unknown
Mass
Unknown
Launch date (UTC)
1984-07-05 (42 years ago)
Launch vehicle
Unknown
Launch site
Plesetsk Missile And Space Complex (PKMTR)
Object type
Payload
Rocket body
Debris
Shape & HBR
Unknown shape, 0.1 m
Radar Cross Section
Small (<0.1 m²)

Expand to show TLE details & history
Last TLE update: 3 days ago

TLE from 3 days ago
0 METEOR 2-11 DEB
1 40705U 84072G   26059.34018811  .00000718  00000-0  49750-3 0  9999
2 40705  82.5169  95.9714 0027137 357.9263   2.1788 13.97618018572137
Epoch: 2026-02-28T08:09Z
TLE epoch observation values (Epoch: 2026-02-28T08:09:52.252Z)
Latitude
0.00002°
Longitude
175.33997°
Altitude
885.229 km
Speed
7.42 km/s
True Right ascension
06h 23m 53s
True Declination
0° 00' 00"
Sunlit
Object was in daylight at epoch
Visualization orbit readout
Latitude
Unknown
Longitude
Unknown
Altitude
Unknown
Speed
Unknown
Apparent Right ascension
Unknown
Apparent Declination
Unknown
Sunlit
N/A
Visualization observer readout
Local Sidereal Time
19:39:06
Azimuth
Unknown
Elevation
Unknown
Doppler factor
Unknown
Orbital elements
Apogee altitude
918.938 km
Perigee altitude
879.441 km
Semi-major axis
7,277.327 km
Eccentricity
0.00271
Inclination
82.5169°
RAAN
95.9714°
Arg. of periapsis
357.9263°
True anomaly
2.19066°
Mean anomaly
2.1788°
Eccentric anomaly
2.18473°
Mean motion
3.49611 °/min
Orbital period
102.97 mins
BSTAR
0.0004975
Loading maneuver chart data...
Computing Atmospheric mass density...
Loading historical data...
Loading historical data...
Loading historical data...
Loading historical data...
Loading historical data...
Loading historical data...
Loading historical data...

Documentation

Showing up to 5 results
|